Terug naar catalogus

STARLINK-34879

ActiefCommunicatieVLEO
NORAD 65377·PAYLOAD·🇺🇸 United States

Gelanceerd Aug 28, 2025 vanaf Cape Canaveral Space Force Station

Loading…

Volgende Passages (komende 24 uur)

TLE

VersSource: CelesTrak SupGP

Epoch: Sep 15, 2026, 04:07 UTC

1 65377C 25190AC  26258.17201389  .00071430  00000+0  21103-2 0  2580
2 65377  53.1593   6.6184 0001301  89.6838 353.4607 15.34356936    12

Volg STARLINK-34879 in realtime met AllMySat

Download on the App Store